This demonstration page uses our WeatherBlox Daily Observations layout. Learn more.

Left ArrowRight Arrow

Hourly Observations for April 23, 2020

Temp ( °F °C ) Dew Point ( °F °C ) Humidity (%) Winds ( mph kmh ) Pressure ( in mb ) Visibility ( mi km ) Precip ( " mm )
12:15 am 00:15 Clear 55 12.8 49 9.6 81 81 W 8 13 29.76 1008 10 16.0934 0 0
12:35 am 00:35 Clear 54 12 49 9.3 84 84 W 8 13 29.76 1008 10 16.0934 0 0
12:55 am 00:55 Clear 52 11.2 48 9.1 87 87 W 6 9 29.76 1008 10 16.0934 0 0
1:15 am 01:15 Clear 51 10.6 47 8.6 88 88 W 6 9 29.77 1008 10 16.0934 0 0
1:35 am 01:35 Clear 51 10.6 48 8.7 88 88 W 6 9 29.77 1008 10 16.0934 0 0
1:55 am 01:55 Clear 51 10.5 46 7.9 84 84 W 6 9 29.76 1008 10 16.0934 0 0
2:15 am 02:15 Clear 48 8.7 44 6.5 86 86 W 5 7 29.77 1008 10 16.0934 0 0
2:35 am 02:35 Clear 48 9 42 5.8 81 81 WNW 3 6 29.76 1008 10 16.0934 0 0
2:55 am 02:55 Clear 46 8 41 5.1 82 82 WNW 5 7 29.77 1008 10 16.0934 0 0
3:15 am 03:15 Clear 49 9.2 38 3.6 68 68 WNW 9 15 29.76 1008 10 16.0934 0 0
3:35 am 03:35 Clear 46 7.8 37 2.6 70 70 WNW 8 13 29.76 1008 10 16.0934 0 0
3:55 am 03:55 Clear 47 8.1 36 2.1 66 66 WNW 8 13 29.77 1008 10 16.0934 0 0
4:15 am 04:15 Clear 43 6.2 35 1.6 73 73 WNW 6 9 29.78 1008 10 16.0934 0 0
4:35 am 04:35 Clear 42 5.8 35 1.5 74 74 WNW 6 9 29.78 1008 10 16.0934 0 0
4:55 am 04:55 Clear 43 6.3 34 1.3 71 71 WNW 6 9 29.78 1008 10 16.0934 0 0
5:15 am 05:15 Clear 43 6.3 34 1.3 71 71 WNW 8 13 29.79 1009 10 16.0934 0 0
5:35 am 05:35 Clear 43 6.1 34 1.1 71 71 WNW 5 7 29.79 1009 10 16.0934 0 0
5:55 am 05:55 Clear 42 5.4 34 0.9 73 73 NW 5 7 29.79 1009 10 16.0934 0 0
6:15 am 06:15 Clear 43 6.2 34 1.3 71 71 NW 6 9 29.79 1009 10 16.0934 0 0
6:35 am 06:35 Clear 44 6.6 34 1.2 69 69 NW 7 11 29.78 1009 10 16.0934 0 0
6:55 am 06:55 Sunny 43 6.3 34 1 69 69 NW 7 11 29.8 1009 10 16.0934 0 0
7:15 am 07:15 Partly Cloudy 45 7.2 35 1.7 68 68 WNW 7 11 29.79 1009 10 16.0934 0 0
7:35 am 07:35 Partly Cloudy 45 7.2 35 1.9 69 69 WNW 7 11 29.79 1009 10 16.0934 0 0
7:55 am 07:55 Sunny 47 8.2 37 2.5 68 68 WNW 6 9 29.78 1008 10 16.0934 0 0
8:15 am 08:15 Sunny 46 7.8 37 2.8 71 71 WNW 3 6 29.78 1009 10 16.0934 0 0
8:35 am 08:35 Partly Cloudy 50 10 39 3.9 66 66 W 5 7 29.76 1008 10 16.0934 0 0
8:55 am 08:55 Partly Cloudy 53 11.7 41 5 64 64 W 7 11 29.76 1008 10 16.0934 0 0
9:15 am 09:15 Partly Cloudy 55 12.7 42 5.6 62 62 Calm 29.74 1007 10 16.0934 0 0
9:35 am 09:35 Partly Cloudy 57 13.7 44 6.7 63 63 Calm 29.73 1007 10 16.0934 0 0
9:55 am 09:55 Sunny 62 16.9 46 7.5 54 54 Calm 29.69 1006 10 16.0934 0 0
10:15 am 10:15 Sunny 68 19.9 42 5.8 40 40 Calm 29.67 1005 10 16.0934 0 0
10:35 am 10:35 Sunny 72 22.1 36 2.1 27 27 WSW 7 11 29.64 1004 10 16.0934 0 0
10:55 am 10:55 Sunny 72 22.4 36 2.1 26 26 WSW 6 9 29.63 1003 10 16.0934 0 0
11:15 am 11:15 Sunny 73 23 35 1.5 24 24 SSW 9 15 29.62 1003 10 16.0934 0 0
11:35 am 11:35 Sunny 74 23.5 35 1.7 24 24 S 9 15 29.61 1003 10 16.0934 0 0
11:55 am 11:55 Sunny 75 24 34 1.2 22 22 S 8 13 29.61 1003 10 16.0934 0 0
12:15 pm 12:15 Sunny 76 24.5 35 1.5 22 22 SW 13 20 29.59 1002 10 16.0934 0 0
12:35 pm 12:35 Sunny 77 24.8 33 0.6 20 20 SSW 10 17 29.58 1002 10 16.0934 0 0
12:55 pm 12:55 Sunny 77 25.2 34 1.3 21 21 S 15 24 29.57 1001 10 16.0934 0 0
1:15 pm 13:15 Sunny 76 24.6 34 1.2 22 22 SSW 10 17 29.57 1001 10 16.0934 0 0
1:35 pm 13:35 Sunny 76 24.3 33 0.5 21 21 SW 14 22 29.56 1001 10 16.0934 0 0
1:55 pm 13:55 Sunny 78 25.3 33 0.7 20 20 SW 12 19 29.55 1001 10 16.0934 0 0
2:15 pm 14:15 Sunny 78 25.4 32 -0.1 19 19 SW 15 24 29.53 1000 10 16.0934 0 0
2:35 pm 14:35 Sunny 77 25 32 0.1 19 19 S 12 19 29.53 1000 10 16.0934 0 0
2:55 pm 14:55 Sunny 77 25.1 32 -0.1 19 19 SSW 10 17 29.51 999 10 16.0934 0 0
3:35 pm 15:35 Sunny 77 24.9 30 -1 18 18 WSW 10 17 29.5 999 10 16.0934 0 0
3:55 pm 15:55 Sunny 77 25.1 32 0 19 19 WSW 12 19 29.5 999 10 16.0934 0 0
4:15 pm 16:15 Sunny 77 25 32 -0.1 19 19 WSW 9 15 29.49 999 10 16.0934 0 0
4:35 pm 16:35 Sunny 78 25.4 32 0 19 19 W 14 22 29.48 998 10 16.0934 0 0
4:55 pm 16:55 Sunny 78 25.8 33 0.7 19 19 W 10 17 29.47 998 10 16.0934 0 0
5:15 pm 17:15 Sunny 79 26.1 32 0.2 18 18 WSW 9 15 29.47 998 10 16.0934 0 0
5:35 pm 17:35 Sunny 77 25 32 0.2 20 20 WNW 9 15 29.48 998 10 16.0934 0 0
5:55 pm 17:55 Sunny 78 25.6 32 0.2 19 19 WNW 10 17 29.47 998 10 16.0934 0 0
6:15 pm 18:15 Sunny 76 24.4 35 1.9 23 23 NNE 23 37 29.49 999 10 16.0934 0 0
6:35 pm 18:35 Sunny 71 21.9 39 3.9 31 31 NNE 22 35 29.52 1000 10 16.0934 0 0
6:55 pm 18:55 Sunny 70 20.9 40 4.2 34 34 N 26 43 29.56 1001 7 11.26538 0 0
7:15 pm 19:15 Sunny 66 18.8 40 4.7 40 40 NNE 24 39 29.59 1002 10 16.0934 0 0
7:35 pm 19:35 Sunny 64 17.6 41 5.2 44 44 NNE 23 37 29.61 1003 10 16.0934 0 0
7:55 pm 19:55 Sunny 63 17.1 42 5.6 47 47 NNE 21 33 29.62 1003 10 16.0934 0 0
8:15 pm 20:15 Sunny 61 16.3 42 5.5 49 49 NE 16 26 29.63 1003 10 16.0934 0 0
8:35 pm 20:35 Clear 60 15.5 42 5.6 52 52 NNE 14 22 29.65 1004 10 16.0934 0 0
8:55 pm 20:55 Clear 58 14.3 42 5.7 57 57 NNE 10 17 29.66 1004 10 16.0934 0 0
9:15 pm 21:15 Clear 57 14.1 42 5.6 57 57 NNE 12 19 29.68 1005 10 16.0934 0 0
9:35 pm 21:35 Clear 56 13.3 42 5.5 59 59 NNE 12 19 29.69 1006 10 16.0934 0 0
9:55 pm 21:55 Clear 56 13.2 42 5.7 61 61 NNE 9 15 29.7 1006 10 16.0934 0 0
10:15 pm 22:15 Clear 53 11.9 41 5.2 64 64 NNE 9 15 29.72 1006 10 16.0934 0 0
10:35 pm 22:35 Clear 53 11.4 41 5.2 66 66 NE 10 17 29.72 1006 10 16.0934 0 0
10:55 pm 22:55 Clear 52 11.1 42 5.5 69 69 NE 10 17 29.72 1007 10 16.0934 0 0
11:15 pm 23:15 Clear 52 11.2 42 5.8 70 70 NE 12 19 29.73 1007 10 16.0934 0 0
11:35 pm 23:35 Clear 52 11.1 42 5.8 70 70 NE 12 19 29.73 1007 10 16.0934 0 0
11:55 pm 23:55 Clear 51 10.7 42 5.8 72 72 ENE 12 19 29.74 1007 10 16.0934 0 0

Powered by AerisWeather